STARLINK-34633

Last updated on Sat Aug 16 2025 00:02:05 GMT+0000 (Coordinated Universal Time)

1 64804U 25150Q 25227.50601156 .00063719 00000+0 10294-2 0 9990 2 64804 70.0011 315.5011 0003705 275.3310 84.7454 15.52538445 5105
UTC large
Height (km)
Speed (km/s)
/
Latitude / Longitude
Inclination (degrees)
Orbital Period (minutes)
Azimuth
Elevation
Range (km)
Doppler Factor

Next 0 passes for location: London (51.5072 / 0.1276)

Sorry there are no passes over London.